User: anonymous   Login
Location: Unspecified
(0.0000°N, 0.0000°E)
Time: 18:00:32
(UTC+00:00)
Language:

GEESAT 2-06 - Orbit

View from above orbital plane
View from above orbital plane
View from above satellite
View from above satellite

Ground track
Ground track

The orbit is defined by the following mean orbital elements,

1 58910U          26145.52336889 +.00000000 +00000-0 +41301-3 0 00000
2 58910  49.9889  48.1418 0005969 326.9415  33.1157 15.03911382    00
Epoch (UTC): 25 May 2026 12:33:39
Eccentricity: 0.0005969
inclination: 49.9889°
perigee height: 551 km
apogee height: 559 km
right ascension of ascending node: 48.1418°
argument of perigee: 326.9415°
revolutions per day: 15.03911382
mean anomaly at epoch: 33.1157°

The dashed part of the orbit path shows where the satellite is in the earth's shadow,  

DLR